Flag for Italy Weather past 2 weeks in Palermo, Italy

Now
59 °F

Passing clouds.


Feels Like: 58 °F
Forecast: 53 / 65 °F
Wind: 8 mph from Northwest

Location: Palermo / Punta Raisi

Current Time: Mar 3, 2015 at 8:14:19 PM

Latest Report: Mar 3, 2015 at 7:20 PM


Visibility: N/A

Pressure: 30.27 "Hg

Humidity: 88%

Dew point: 55 °F

Location of PalermoLocation

Historic Weather in Palermo — Graph

°F

Palermo temperature yesterday

Maximum temperature yesterday: 63 °F (at 1:20 PM)
Minimum temperature yesterday: 48 °F (at 3:50 AM)
Average temperature yesterday: 57 °F

Past Weeks' High & Low Weather Summary

 TemperatureHumidityPressure
High68 °F (Mar 3, 11:20 AM)100% (Feb 22, 8:50 AM)30.42 "Hg (Feb 22, 8:50 AM)
Low43 °F (Feb 20, 4:20 AM)49% (Mar 3, 11:20 AM)29.36 "Hg (Feb 22, 11:50 AM)
Average54 °F78%29.94 "Hg
* Reported Feb 16 6:20 PM — Mar 3 6:50 PM, Palermo, Weather by CustomWeather, © 2015

Note: Actual official high and low records may vary slightly from our data, if they occured in-between our weather recording intervals... More about our weather records

Advertising

Palermo weather history for previous 24 hours

 ConditionsComfort  
Time TempWeatherWind HumidityBarometerVisibility
6:50 PM
Tue, Mar 3
59 °FClear.13 mph88%30.24 "Hg10 mi
6:20 PM61 °FClear.12 mph83%30.24 "Hg10 mi
5:50 PM61 °FSunny.8 mph77%30.24 "Hg10 mi
5:20 PM64 °FPassing clouds.5 mph64%30.21 "HgN/A
4:50 PM64 °FSunny.9 mph64%30.21 "Hg10 mi
4:20 PM63 °FPassing clouds.9 mph73%30.24 "HgN/A
3:50 PM63 °FSunny.10 mph73%30.24 "Hg10 mi
3:20 PM61 °FSunny.16 mph77%30.24 "Hg10 mi
2:50 PM61 °FSunny.16 mph83%30.24 "Hg10 mi
2:20 PM61 °FSunny.14 mph83%30.24 "Hg10 mi
1:50 PM61 °FSunny.13 mph83%30.24 "Hg10 mi
1:20 PM61 °FSunny.16 mph83%30.24 "Hg10 mi
12:50 PM63 °FSunny.15 mph77%30.24 "Hg10 mi
12:20 PM64 °FPassing clouds.6 mph73%30.24 "HgN/A
11:50 AM68 °FSunny.1 mph53%30.24 "Hg10 mi
11:20 AM68 °FPassing clouds.6 mph49%30.24 "HgN/A
10:50 AM64 °FSunny.6 mph60%30.24 "Hg10 mi
10:20 AM66 °FPassing clouds.7 mph56%30.24 "HgN/A
9:50 AM64 °FSunny.6 mph64%30.24 "Hg10 mi
9:20 AM64 °FPassing clouds.6 mph60%30.21 "HgN/A
8:50 AM64 °FSunny.8 mph64%30.21 "Hg10 mi
8:20 AM63 °FSunny.9 mph68%30.21 "Hg10 mi
7:50 AM59 °FSunny.9 mph77%30.18 "Hg10 mi
7:20 AM59 °FPassing clouds.9 mph77%30.18 "HgN/A
6:50 AM59 °FSunny.10 mph77%30.18 "Hg10 mi
6:20 AM59 °FClear.10 mph77%30.18 "Hg10 mi
5:50 AM61 °FClear.12 mph72%30.18 "Hg10 mi
5:20 AM59 °FClear.15 mph77%30.15 "Hg10 mi
4:50 AM61 °FClear.15 mph77%30.15 "Hg10 mi
4:20 AM61 °FClear.18 mph72%30.15 "Hg10 mi
3:50 AM61 °FClear.22 mph72%30.12 "Hg10 mi
3:20 AM61 °FClear.21 mph72%30.12 "Hg10 mi
2:50 AM61 °FClear.22 mph72%30.15 "Hg10 mi
2:20 AM59 °FClear.22 mph77%30.15 "Hg10 mi
1:50 AM59 °FClear.24 mph77%30.15 "Hg10 mi
1:20 AM59 °FClear.23 mph77%30.15 "Hg10 mi
12:50 AM59 °FClear.22 mph77%30.18 "Hg10 mi
12:20 AM61 °FClear.28 mph72%30.15 "Hg10 mi
11:50 PM
Mon, Mar 2
61 °FClear.28 mph72%30.15 "Hg10 mi
11:20 PM61 °FClear.24 mph68%30.15 "Hg10 mi
10:50 PM61 °FPassing clouds.25 mph68%30.15 "HgN/A
10:20 PM61 °FPassing clouds.25 mph68%30.15 "HgN/A
9:50 PM61 °FPassing clouds.24 mph68%30.15 "HgN/A
9:20 PM61 °FPassing clouds.22 mph68%30.15 "HgN/A
8:50 PM61 °FPassing clouds.20 mph63%30.15 "HgN/A
8:20 PM61 °FPassing clouds.25 mph68%30.15 "HgN/A
Weather by CustomWeather, © 2015

See weather overviewHow to use our weather pages